Weather History for KIMT - November, 2010

Change the Weather History Date:

Thursday, November 18, 2010

  Actual Average Record
Temperature  
Mean Temperature 30 °F -  
Max Temperature 33 °F 40 °F 69 °F (1953)
Min Temperature 27 °F 23 °F 4 °F (1959)
Degree Days  
Heating Degree Days 35    
Moisture  
Dew Point 20 °F    
Average Humidity 68    
Maximum Humidity 80    
Minimum Humidity 59    
Precipitation  
Precipitation 0.00 in - - ()
Sea Level Pressure  
Sea Level Pressure 30.24 in    
Wind  
Wind Speed 8 mph (NNW)    
Max Wind Speed 16 mph    
Max Gust Speed 21 mph    
Visibility 10 miles    
Events      
Averages and records for this station are not official NWS values.
T = Trace of Precipitation, MM = Missing Value Source: NWS Daily Summary

Daily Weather History Graph

Daily Weather History Graph

Search for Another Location

Airport or City:

Trip Planner

Search our weather history database for the weather conditions in past years. The results will help you decide how hot, cold, wet, or windy it might be!

Date:

Astronomy

Nov. 18, 2010 Rise Set
Actual Time 6:56 AM CST 4:18 PM CST
Civil Twilight 6:23 AM CST 4:50 PM CST
Nautical Twilight 5:47 AM CST 5:27 PM CST
Astronomical Twilight 5:12 AM CST 6:02 PM CST
Moon 2:22 PM CST (11/18) 3:47 AM CST (11/18)
Length of Visible Light 10h 26m
Length of Day
9h 21m
Waxing Gibbous, 91% of the Moon is Illuminated
Nov 18
Waxing Gibbous
Nov 21
Full
Nov 28
Last Quarter
Dec 5
New
Dec 13
First Quarter

Hourly Weather History & Observations

Time (CST) Temp. Windchill Dew Point Humidity Pressure Visibility Wind Dir Wind Speed Gust Speed Precip Events Conditions
12:32 AM 33.8 °F 27.7 °F 24.8 °F 70% 30.12 in 10.0 mi NW 6.9 mph - N/A   Overcast
12:46 AM 33.8 °F 27.7 °F 24.8 °F 70% 30.11 in 10.0 mi NW 6.9 mph - N/A   Overcast
1:54 AM 30.9 °F 22.8 °F 25.0 °F 79% 30.18 in 10.0 mi NW 9.2 mph - N/A   Mostly Cloudy
2:54 AM 30.9 °F 24.3 °F 25.0 °F 79% 30.19 in 10.0 mi NNW 6.9 mph - N/A   Mostly Cloudy
3:54 AM 30.0 °F 23.2 °F 21.9 °F 72% 30.21 in 10.0 mi NNW 6.9 mph - N/A   Overcast
4:31 AM 30.2 °F 22.6 °F 23.0 °F 75% 30.17 in 10.0 mi NNW 8.1 mph - N/A   Overcast
4:54 AM 30.0 °F 21.7 °F 23.0 °F 75% 30.22 in 10.0 mi NW 9.2 mph - N/A   Overcast
5:08 AM 30.2 °F 20.8 °F 24.8 °F 80% 30.18 in 10.0 mi NNW 11.5 mph - N/A   Overcast
5:44 AM 28.4 °F 21.2 °F 23.0 °F 80% 30.18 in 10.0 mi NNW 6.9 mph - N/A   Mostly Cloudy
5:54 AM 28.9 °F 19.8 °F 21.0 °F 72% 30.24 in 10.0 mi NNW 10.4 mph 18.4 mph N/A   Scattered Clouds
6:54 AM 28.9 °F 21.1 °F 21.9 °F 75% 30.25 in 10.0 mi NNW 8.1 mph - N/A   Overcast
7:54 AM 28.0 °F 16.5 °F 19.0 °F 69% 30.27 in 10.0 mi NNW 15.0 mph - 0.00 in   Overcast
8:54 AM 28.9 °F 18.2 °F 21.0 °F 72% 30.28 in 10.0 mi NNW 13.8 mph - 0.00 in   Overcast
9:11 AM 30.2 °F 21.3 °F 21.2 °F 69% 30.23 in 10.0 mi NW 10.4 mph - 0.00 in   Overcast
9:25 AM 30.2 °F 20.2 °F 19.4 °F 64% 30.24 in 10.0 mi NW 12.7 mph - 0.00 in   Overcast
9:54 AM 30.0 °F 18.7 °F 19.0 °F 64% 30.29 in 10.0 mi NW 16.1 mph 20.7 mph 0.00 in   Overcast
10:54 AM 30.9 °F 21.2 °F 18.0 °F 59% 30.29 in 10.0 mi NNW 12.7 mph - N/A   Mostly Cloudy
11:54 AM 30.0 °F 20.5 °F 19.0 °F 64% 30.28 in 10.0 mi North 11.5 mph - N/A   Overcast
12:54 PM 30.9 °F 23.5 °F 18.0 °F 59% 30.29 in 10.0 mi NW 8.1 mph - N/A   Overcast
1:54 PM 30.0 °F 24.1 °F 17.1 °F 59% 30.29 in 10.0 mi WNW 5.8 mph - N/A   Overcast
2:54 PM 30.0 °F 24.1 °F 17.1 °F 59% 30.29 in 10.0 mi NNW 5.8 mph - N/A   Overcast
3:54 PM 28.9 °F 25.2 °F 17.1 °F 61% 30.30 in 10.0 mi NNE 3.5 mph - N/A   Overcast
4:54 PM 28.0 °F 22.8 °F 17.1 °F 63% 30.30 in 10.0 mi North 4.6 mph - N/A   Overcast
5:54 PM 28.0 °F 22.8 °F 17.1 °F 63% 30.29 in 10.0 mi NNE 4.6 mph - N/A   Overcast
6:54 PM 28.0 °F 24.2 °F 16.0 °F 61% 30.28 in 10.0 mi ENE 3.5 mph - N/A   Overcast
7:54 PM 27.0 °F 21.6 °F 17.1 °F 66% 30.27 in 10.0 mi East 4.6 mph - N/A   Overcast
8:54 PM 27.0 °F 19.5 °F 17.1 °F 66% 30.27 in 10.0 mi ESE 6.9 mph - N/A   Mostly Cloudy
9:54 PM 27.0 °F 21.6 °F 17.1 °F 66% 30.24 in 10.0 mi ESE 4.6 mph - N/A   Mostly Cloudy
10:54 PM 27.0 °F 23.0 °F 18.0 °F 69% 30.23 in 10.0 mi SE 3.5 mph - N/A   Overcast
11:54 PM 27.0 °F 23.0 °F 18.0 °F 69% 30.22 in 10.0 mi SE 3.5 mph - N/A   Overcast